Flag for Germany Weather past 2 weeks in Trier, Rhineland-Palatinate, Germany

Now
78 °F

Overcast.


Feels Like: 79 °F
Forecast: 54 / 69 °F
Wind: 5 mph from West

Location: Trier-Petrisberg

Current Time: Aug 31, 2015 at 10:55:47 PM

Latest Report: Aug 31, 2015 at 10:00 PM


Visibility: 31 mi

Pressure: 29.83 "Hg

Humidity: 50%

Dew point: 58 °F

Location of TrierLocation

Historic Weather in Trier — Graph

°F

Trier temperature yesterday

Maximum temperature yesterday: 91 °F (at 4:00 PM)
Minimum temperature yesterday: 64 °F (at 8:00 AM)
Average temperature yesterday: 77 °F

Past Weeks' High & Low Weather Summary

 TemperatureHumidityPressure
High91 °F (Aug 30, 4:00 PM)100% (Aug 19, 7:00 AM)30.26 "Hg (Aug 19, 7:00 AM)
Low47 °F (Aug 19, 7:00 AM)26% (Aug 31, 5:00 PM)29.60 "Hg (Aug 24, 1:00 PM)
Average66 °F70%29.99 "Hg
* Reported Aug 16 9:00 PM — Aug 31 9:00 PM, Trier, Weather by CustomWeather, © 2015

Note: Actual official high and low records may vary slightly from our data, if they occured in-between our weather recording intervals... More about our weather records

Advertising

Trier weather history for previous 24 hours

 ConditionsComfort  
Time TempWeatherWind HumidityBarometerVisibility
9:00 PM
Mon, Aug 31
80 °FOvercast.5 mph44%29.82 "Hg19 mi
8:00 PM82 °FSunny.6 mph38%29.80 "Hg34 mi
7:00 PM86 °FPassing clouds.7 mph32%29.78 "Hg22 mi
6:00 PM89 °FPassing clouds.9 mph29%29.78 "Hg10 mi
5:00 PM90 °FPassing clouds.8 mph26%29.78 "Hg12 mi
4:00 PM90 °FScattered clouds.8 mph28%29.79 "Hg16 mi
3:00 PM89 °FScattered clouds.10 mph27%29.81 "Hg25 mi
2:00 PM88 °FScattered clouds.7 mph31%29.83 "Hg25 mi
1:00 PM85 °FPassing clouds.8 mph35%29.86 "Hg25 mi
12:00 PM82 °FPassing clouds.8 mph37%29.89 "Hg19 mi
11:00 AM81 °FPassing clouds.6 mph43%29.89 "Hg19 mi
10:00 AM75 °FPassing clouds.3 mph63%29.91 "Hg19 mi
9:00 AM69 °FPassing clouds.2 mph69%29.93 "Hg17 mi
8:00 AM65 °FPassing clouds.1 mph90%29.94 "Hg14 mi
7:00 AM63 °FScattered clouds.1 mph95%29.95 "Hg7 mi
5:00 AM65 °FPassing clouds.1 mph88%29.95 "Hg12 mi
4:00 AM67 °FPassing clouds.2 mph93%29.96 "Hg6 mi
3:00 AM67 °FClear.1 mph91%29.96 "Hg10 mi
2:00 AM69 °FClear.2 mph87%29.97 "Hg14 mi
1:00 AM70 °FClear.1 mph85%29.97 "Hg18 mi
11:00 PM
Sun, Aug 30
77 °FClear.1 mph68%29.97 "Hg22 mi
10:00 PM79 °FClear.2 mph64%29.98 "Hg25 mi
Weather by CustomWeather, © 2015

See weather overviewHow to use our weather pages